Regional Weather Roundup
Issued by NWS

Home | Current Version | Previous Version | Text Only | Print | Product List | Glossary On
Versions: 1 2 3 4 5 6 7 8 9 10 11 12 13 14 15 16 17 18 19 20 21 22 23 24 25 26 27 28 29 30 31 32 33 34 35 36 37 38 39 40 41 42 43 44 45 46 47 48 49 50
000
ASUS43 KMKX 110121
RWRWI

WISCONSIN REGIONAL WEATHER ROUNDUP
NATIONAL WEATHER SERVICE MILWAUKEE/SULLIVAN WI
800 PM CDT THU JUL 10 2014

NOTE: "FAIR" INDICATES FEW OR NO CLOUDS BELOW 12,000 FEET WITH NO
SIGNIFICANT WEATHER AND/OR OBSTRUCTIONS TO VISIBILITY.

WIZ001-002-006>008-014>016-023>028-110200-
NORTHWEST WISCONSIN

CITY           SKY/WX    TMP DP  RH WIND       PRES   REMARKS
SUPERIOR ARPT  MOCLDY    57  51  81 NE5       29.99F
ASHLAND        PTCLDY    71  62  73 CALM      30.01S
HAYWARD        MOCLDY    73  62  68 S5        30.02F
SIREN          MOCLDY    76  64  64 SE5       29.99F
RICE LAKE      MOCLDY    75  63  66 SE8       30.03F
LADYSMITH      PTCLDY    76  62  62 SE3       30.06S
EAU CLAIRE     MOCLDY    77  64  64 S7        30.02S
MENOMONIE      MOCLDY    76  66  70 SE7       30.02F
NEW RICHMOND   MOCLDY    76  61  60 S8        30.01R
OSCEOLA        MOCLDY    76  64  65 SE7       30.01S
$$

WIZ003>005-009-010-017-018-110200-
NORTH CENTRAL WISCONSIN

CITY           SKY/WX    TMP DP  RH WIND       PRES   REMARKS
WOODRUFF       CLEAR     72  58  61 S5        30.08S
RHINELANDER    CLEAR     71  57  61 S5        30.09S
EAGLE RIVER    CLEAR     71  52  51 CALM      30.09R
LAND O LAKES   CLEAR     71  53  51 CALM      30.09S
PHILLIPS       MOCLDY    73  61  65 S6        30.06S
TOMAHAWK       CLEAR     69  60  72 CALM      30.09S
MEDFORD        PTCLDY    71  63  77 S5        30.08S
MERRILL        CLEAR     73  60  64 S6        30.08S
$$

WIZ029-030-035-036-043>047-110200-
CENTRAL WISCONSIN

CITY           SKY/WX    TMP DP  RH WIND       PRES   REMARKS
WAUSAU         CLEAR     74  60  61 S9        30.07R
MOSINEE        PTCLDY    72  63  73 S6        30.10R
MARSHFIELD     PTCLDY    72  64  76 S7        30.08R
STEVENS POINT  CLEAR     72  59  63 S8        30.10S
WAUPACA        MOCLDY    75  60  59 SE3       30.10R
WAUTOMA        MOCLDY    74  63  68 CALM      30.10R
WISC RAPIDS    PTCLDY    75  61  61 S6        30.09S
CAMP DOUGLAS   MOCLDY    75  64  69 S5        30.08S
$$

WIZ011>013-019>022-031-037>040-048>050-110200-
NORTHEAST WISCONSIN

CITY           SKY/WX    TMP DP  RH WIND       PRES   REMARKS
ANTIGO         CLEAR     66  59  78 SE7       30.11S
STURGEON BAY   CLEAR     63  48  59 S10       30.14R
GREEN BAY      CLEAR     69  52  54 S14       30.12R
MANITOWOC      CLEAR     64  51  62 S12       30.15R
APPLETON       PTCLDY    72  57  60 SE12      30.12R
CLINTONVILLE   CLEAR     72  59  64 S5        30.10R
OSHKOSH        CLOUDY    71  59  65 SE9       30.11R
$$

WIZ032>034-041-042-053>061-110200-
SOUTHWEST WISCONSIN

CITY           SKY/WX    TMP DP  RH WIND       PRES   REMARKS
LA CROSSE      PTCLDY    80  62  54 S9        30.05R HAZE    HX  81
SPARTA         MOCLDY    74  61  63 S5        30.08S
VIROQUA        FAIR      73  62  67 S6        30.10S
BOSCOBEL       PTCLDY    77  62  59 S3        30.08S
PRAIRIE DU CHI PTCLDY    76  58  53 SE5       30.07S
PLATTEVILLE    FAIR      73  63  69 S6        30.12S
$$

WIZ056-057-062-063-064-067-068-110200-
SOUTH CENTRAL WISCONSIN

CITY           SKY/WX    TMP DP  RH WIND       PRES   REMARKS
BARABOO/DELLS  MOCLDY    73  61  65 CALM      30.10R
LONE ROCK      MOCLDY    78  64  61 S5        30.10R HX  80
WATERTOWN      CLEAR     71  61  70 SE6       30.12R
MADISON        MOCLDY    77  58  51 S9        30.11R
MIDDLETON      FAIR      76  57  53 S9        30.11S
MONROE         CLEAR     72  61  68 S6        30.13R
JANESVILLE     CLEAR     75  57  53 SE5       30.11R
$$

WIZ051-052-058>065-066-070>072-110200-
SOUTHEAST WISCONSIN

CITY           SKY/WX    TMP DP  RH WIND       PRES   REMARKS
MILWAUKEE      PTCLDY    67  51  56 S9        30.15R
WAUKESHA       CLEAR     66  54  63 SE10      30.16S
MILWAUKEE/TIMM CLEAR     70  45  40 SE8       30.15
RACINE         CLEAR     67  52  58 S8        30.17R
BURLINGTON     CLEAR     67  54  61 SE6       30.15R
KENOSHA        CLEAR     67  52  58 SE7       30.16R
FOND DU LAC    PTCLDY    69  56  62 S12       30.13R
SHEBOYGAN      CLEAR     64  53  67 S7        30.15R
WEST BEND      CLEAR     64  50  59 SE5       30.15R
JUNEAU         CLOUDY    72  44  36 SE9       30.13R
$$

LSZ147-162-110200-
LAKE SUPERIOR

STATION/POSITION TIME  TEMP    WIND        PRES    WAVE
                       AIR SEA DIR/SP/G            HT/PER
                 (UTC) (F)     (DEG/KT/KT) (MB)    (FT/S)
W MID LAKE BUOY  0050   48 39  120/ 10/ 12 1016.5F   0
PORT WING        0040   58      10/  5/  7 1015.6S
SAXON HARBOR     0000           CALM  /  3 1015.9S
$$

LMZ867-665-643>646-110200-
LAKE MICHIGAN

STATION/POSITION TIME  TEMP    WIND        PRES    WAVE
                       AIR SEA DIR/SP/G            HT/PER
                 (UTC) (F)     (DEG/KT/KT) (MB)    (FT/S)
N MID LAKE BUOY  0050   58 56  160/  8/  8 1019.9F   0
NORTHPORT PIER   0000   63     160/  7/ 13 1020.0F
ALGOMA LAKESHORE 0020          210/  5/  6   N/A
KEWAUNEE LAKESHO 0100   56     180/  7/  8 1021.1R
SHEBOYGAN LAKESH 0100   63     190/ 11/ 11 1021.0R
PORT WASHINGTON  0000   64     200/  3/  4 1021.3R
MILWAUKEE LAKESH 0100   62     160/  7/  8   N/A
S MID LAKE BUOY  0050   64 62     CALM     1021.1F   0
KENOSHA   LAKESH 0100   64     170/  9/ 11   N/A
$$

TC  - TEMPERATURE IN CELSIUS
VSB - VISIBILITY IN STATUTE MILES
WCI - WIND CHILL INDEX
HX  - HEAT INDEX



USA.gov is the U.S. government's official web portal to all federal, state and local government web resources and services.